| time (UTC) | temp F | wind direction | speed MPH | gust MPH | rain 1hr in | rain 24hr in | rain mn in | humidity % | barometer mb |
| 20260902230549 | 74 | 323 | 0.0 | 0.0 | 0.00 | 0.00 | 0.00 | 77 | 1018.3 |
| 20260902230048 | 74 | 323 | 0.0 | 0.0 | 0.00 | 0.00 | 0.00 | 76 | 1018.2 |
| 20260902225602 | 74 | 323 | 0.0 | 0.0 | 0.00 | 0.00 | 0.00 | 76 | 1018.2 |
| 20260902225103 | 74 | 323 | 0.0 | 0.0 | 0.00 | 0.00 | 0.00 | 76 | 1018.2 |
| 20260902224556 | 74 | 323 | 0.0 | 0.0 | 0.00 | 0.00 | 0.00 | 76 | 1018.2 |
| 20260902224058 | 74 | 323 | 0.0 | 0.0 | 0.00 | 0.00 | 0.00 | 76 | 1018.2 |
| 20260902223551 | 74 | 323 | 0.0 | 0.0 | 0.00 | 0.00 | 0.00 | 76 | 1018.2 |
| 20260902223052 | 74 | 323 | 0.0 | 0.0 | 0.00 | 0.00 | 0.00 | 76 | 1018.2 |
| 20260902222633 | 74 | 323 | 0.0 | 1.0 | 0.00 | 0.00 | 0.00 | 76 | 1018.1 |
| 20260902222106 | 75 | 323 | 0.0 | 1.0 | 0.00 | 0.00 | 0.00 | 75 | 1018.1 |
| 20260902221606 | 75 | 323 | 0.0 | 0.0 | 0.00 | 0.00 | 0.00 | 75 | 1018.1 |
| 20260902221120 | 75 | 323 | 0.0 | 2.0 | 0.00 | 0.00 | 0.00 | 75 | 1018.0 |
| 20260902220600 | 75 | 323 | 1.0 | 3.0 | 0.00 | 0.00 | 0.00 | 74 | 1018.1 |
| 20260902220059 | 75 | 323 | 2.0 | 3.0 | 0.00 | 0.00 | 0.00 | 74 | 1018.0 |
| 20260902215553 | 75 | 318 | 0.0 | 2.0 | 0.00 | 0.00 | 0.00 | 73 | 1017.9 |
| 20260902215049 | 76 | 317 | 0.0 | 3.0 | 0.00 | 0.00 | 0.00 | 72 | 1017.9 |
| 20260902214609 | 76 | 317 | 2.0 | 3.0 | 0.00 | 0.00 | 0.00 | 71 | 1017.9 |
| 20260902214104 | 77 | 316 | 0.0 | 4.0 | 0.00 | 0.00 | 0.00 | 70 | 1017.8 |
| 20260902213604 | 78 | 316 | 0.0 | 5.0 | 0.00 | 0.00 | 0.00 | 69 | 1017.8 |
| 20260902213058 | 79 | 321 | 3.0 | 5.0 | 0.00 | 0.00 | 0.00 | 66 | 1017.8 |
| 20260902212559 | 79 | 112 | 0.0 | 2.0 | 0.00 | 0.00 | 0.00 | 64 | 1017.7 |
| 20260902212053 | 79 | 112 | 0.0 | 3.0 | 0.00 | 0.00 | 0.00 | 64 | 1017.7 |
| 20260902211554 | 79 | 112 | 1.0 | 3.0 | 0.00 | 0.00 | 0.00 | 64 | 1017.6 |
| 20260902211047 | 79 | 112 | 1.0 | 3.0 | 0.00 | 0.00 | 0.00 | 64 | 1017.6 |
| 20260902210548 | 79 | 117 | 1.0 | 3.0 | 0.00 | 0.00 | 0.00 | 64 | 1017.5 |
| 20260902205601 | 79 | 144 | 1.0 | 3.0 | 0.00 | 0.00 | 0.00 | 64 | 1017.4 |
| 20260902205102 | 79 | 143 | 0.0 | 3.0 | 0.00 | 0.00 | 0.00 | 64 | 1017.4 |
| 20260902204615 | 79 | 143 | 1.0 | 3.0 | 0.00 | 0.00 | 0.00 | 64 | 1017.4 |
| 20260902204055 | 79 | 138 | 0.0 | 4.0 | 0.00 | 0.00 | 0.00 | 64 | 1017.4 |
| 20260902203549 | 79 | 136 | 2.0 | 4.0 | 0.00 | 0.00 | 0.00 | 64 | 1017.3 |
| 20260902203049 | 79 | 154 | 1.0 | 3.0 | 0.00 | 0.00 | 0.00 | 65 | 1017.3 |
| 20260902202609 | 79 | 149 | 2.0 | 5.0 | 0.00 | 0.00 | 0.00 | 64 | 1017.2 |
| 20260902202103 | 80 | 164 | 2.0 | 7.0 | 0.00 | 0.00 | 0.00 | 64 | 1017.2 |
| 20260902201557 | 80 | 175 | 2.0 | 7.0 | 0.00 | 0.00 | 0.00 | 64 | 1017.1 |
| 20260902201058 | 80 | 129 | 2.0 | 6.0 | 0.00 | 0.00 | 0.00 | 64 | 1017.1 |
| 20260902200551 | 80 | 128 | 1.0 | 4.0 | 0.00 | 0.00 | 0.00 | 65 | 1017.1 |
| 20260902200052 | 80 | 144 | 2.0 | 4.0 | 0.00 | 0.00 | 0.00 | 64 | 1017.2 |
| 20260902195546 | 80 | 142 | 1.0 | 3.0 | 0.00 | 0.00 | 0.00 | 64 | 1017.2 |
| 20260902195047 | 81 | 183 | 1.0 | 4.0 | 0.00 | 0.00 | 0.00 | 63 | 1017.2 |
| 20260902194601 | 81 | 181 | 2.0 | 4.0 | 0.00 | 0.00 | 0.00 | 63 | 1017.2 |
| 20260902194102 | 81 | 171 | 1.0 | 3.0 | 0.00 | 0.00 | 0.00 | 62 | 1017.2 |
| 20260902193555 | 81 | 171 | 1.0 | 3.0 | 0.00 | 0.00 | 0.00 | 62 | 1017.2 |
| 20260902193057 | 81 | 168 | 1.0 | 3.0 | 0.00 | 0.00 | 0.00 | 61 | 1017.2 |
| 20260902192551 | 82 | 171 | 0.0 | 3.0 | 0.00 | 0.00 | 0.00 | 60 | 1017.1 |
| 20260902192052 | 82 | 157 | 1.0 | 3.0 | 0.00 | 0.00 | 0.00 | 60 | 1017.1 |
| 20260902191555 | 82 | 154 | 0.0 | 3.0 | 0.00 | 0.00 | 0.00 | 59 | 1017.0 |
| 20260902191047 | 82 | 157 | 0.0 | 2.0 | 0.00 | 0.00 | 0.00 | 59 | 1017.0 |
| 20260902190607 | 83 | 157 | 1.0 | 3.0 | 0.00 | 0.00 | 0.00 | 58 | 1016.9 |
| 20260902185602 | 83 | 164 | 1.0 | 3.0 | 0.00 | 0.00 | 0.00 | 57 | 1016.9 |
| 20260902185056 | 84 | 173 | 0.0 | 3.0 | 0.00 | 0.00 | 0.00 | 57 | 1016.8 |
| 20260902184616 | 84 | 173 | 1.0 | 3.0 | 0.00 | 0.00 | 0.00 | 56 | 1016.7 |
| 20260902184049 | 84 | 171 | 2.0 | 3.0 | 0.00 | 0.00 | 0.00 | 55 | 1016.7 |
| 20260902183550 | 85 | 154 | 1.0 | 3.0 | 0.00 | 0.00 | 0.00 | 53 | 1016.6 |
| 20260902183111 | 85 | 152 | 0.0 | 3.0 | 0.00 | 0.00 | 0.00 | 51 | 1016.5 |
| 20260902182626 | 85 | 153 | 1.0 | 3.0 | 0.00 | 0.00 | 0.00 | 51 | 1016.4 |
| 20260902182059 | 86 | 174 | 0.0 | 1.0 | 0.00 | 0.00 | 0.00 | 50 | 1016.4 |
| 20260902181600 | 86 | 174 | 0.0 | 0.0 | 0.00 | 0.00 | 0.00 | 50 | 1016.4 |
| 20260902181051 | 86 | 174 | 0.0 | 0.0 | 0.00 | 0.00 | 0.00 | 50 | 1016.4 |
| 20260902180611 | 86 | 174 | 0.0 | 0.0 | 0.00 | 0.00 | 0.00 | 50 | 1016.3 |
| 20260902180051 | 87 | 174 | 0.0 | 0.0 | 0.00 | 0.00 | 0.00 | 48 | 1016.2 |
| 20260902175605 | 87 | 174 | 0.0 | 0.0 | 0.00 | 0.00 | 0.00 | 47 | 1016.1 |
| 20260902175048 | 87 | 174 | 0.0 | 0.0 | 0.00 | 0.00 | 0.00 | 47 | 1016.1 |
| 20260902174601 | 87 | 174 | 0.0 | 2.0 | 0.00 | 0.00 | 0.00 | 47 | 1016.1 |
| 20260902174102 | 87 | 174 | 0.0 | 2.0 | 0.00 | 0.00 | 0.00 | 47 | 1016.1 |
| 20260902173554 | 88 | 174 | 0.0 | 3.0 | 0.00 | 0.00 | 0.00 | 46 | 1016.0 |
| 20260902173055 | 88 | 173 | 1.0 | 3.0 | 0.00 | 0.00 | 0.00 | 46 | 1016.0 |
| 20260902172609 | 88 | 173 | 0.0 | 3.0 | 0.00 | 0.00 | 0.00 | 46 | 1016.1 |
| 20260902172049 | 88 | 175 | 0.0 | 2.0 | 0.00 | 0.00 | 0.00 | 45 | 1016.1 |
| 20260902171609 | 88 | 177 | 0.0 | 3.0 | 0.00 | 0.00 | 0.00 | 46 | 1016.1 |
| 20260902171132 | 88 | 177 | 1.0 | 3.0 | 0.00 | 0.00 | 0.00 | 45 | 1016.0 |
| 20260902170603 | 89 | 180 | 0.0 | 3.0 | 0.00 | 0.00 | 0.00 | 46 | 1016.1 |
| 20260902170057 | 89 | 183 | 1.0 | 4.0 | 0.00 | 0.00 | 0.00 | 45 | 1016.1 |
| 20260902165558 | 89 | 185 | 2.0 | 5.0 | 0.00 | 0.00 | 0.00 | 45 | 1016.1 |
| 20260902165052 | 89 | 207 | 3.0 | 5.0 | 0.00 | 0.00 | 0.00 | 44 | 1016.1 |
| 20260902164552 | 90 | 186 | 3.0 | 5.0 | 0.00 | 0.00 | 0.00 | 43 | 1016.1 |
| 20260902164105 | 90 | 184 | 2.0 | 4.0 | 0.00 | 0.00 | 0.00 | 43 | 1016.1 |
| 20260902163546 | 90 | 192 | 2.0 | 4.0 | 0.00 | 0.00 | 0.00 | 43 | 1016.1 |
| 20260902163100 | 90 | 212 | 1.0 | 5.0 | 0.00 | 0.00 | 0.00 | 43 | 1016.1 |
| 20260902162600 | 90 | 190 | 2.0 | 5.0 | 0.00 | 0.00 | 0.00 | 43 | 1016.0 |
| 20260902162054 | 90 | 160 | 0.0 | 5.0 | 0.00 | 0.00 | 0.00 | 42 | 1016.0 |
| 20260902161554 | 90 | 159 | 2.0 | 5.0 | 0.00 | 0.00 | 0.00 | 42 | 1016.1 |
| 20260902161048 | 91 | 207 | 1.0 | 4.0 | 0.00 | 0.00 | 0.00 | 42 | 1016.1 |
| 20260902160609 | 91 | 207 | 3.0 | 4.0 | 0.00 | 0.00 | 0.00 | 42 | 1016.0 |
| 20260902160048 | 91 | 188 | 1.0 | 5.0 | 0.00 | 0.00 | 0.00 | 42 | 1016.1 |
| 20260902155609 | 91 | 219 | 0.0 | 3.0 | 0.00 | 0.00 | 0.00 | 41 | 1016.1 |
| 20260902155123 | 91 | 213 | 1.0 | 3.0 | 0.00 | 0.00 | 0.00 | 41 | 1016.1 |
| 20260902154602 | 91 | 215 | 1.0 | 5.0 | 0.00 | 0.00 | 0.00 | 41 | 1016.1 |
| 20260902154057 | 91 | 239 | 3.0 | 5.0 | 0.00 | 0.00 | 0.00 | 40 | 1016.1 |
| 20260902153558 | 91 | 219 | 0.0 | 4.0 | 0.00 | 0.00 | 0.00 | 41 | 1016.2 |
| 20260902153052 | 92 | 219 | 1.0 | 4.0 | 0.00 | 0.00 | 0.00 | 41 | 1016.2 |
| 20260902152552 | 92 | 217 | 1.0 | 4.0 | 0.00 | 0.00 | 0.00 | 41 | 1016.2 |
| 20260902152046 | 91 | 251 | 1.0 | 4.0 | 0.00 | 0.00 | 0.00 | 42 | 1016.2 |
| 20260902151602 | 91 | 290 | 2.0 | 5.0 | 0.00 | 0.00 | 0.00 | 41 | 1016.3 |
| 20260902151123 | 91 | 210 | 1.0 | 5.0 | 0.00 | 0.00 | 0.00 | 42 | 1016.4 |
| 20260902150603 | 91 | 196 | 2.0 | 5.0 | 0.00 | 0.00 | 0.00 | 42 | 1016.4 |
| 20260902150125 | 91 | 253 | 2.0 | 5.0 | 0.00 | 0.00 | 0.00 | 42 | 1016.4 |
| 20260902145617 | 91 | 252 | 1.0 | 6.0 | 0.00 | 0.00 | 0.00 | 42 | 1016.6 |
| 20260902145057 | 91 | 275 | 2.0 | 8.0 | 0.00 | 0.00 | 0.00 | 42 | 1016.5 |
| 20260902144551 | 91 | 240 | 4.0 | 8.0 | 0.00 | 0.00 | 0.00 | 43 | 1016.6 |
| 20260902144051 | 91 | 227 | 3.0 | 6.0 | 0.00 | 0.00 | 0.00 | 42 | 1016.6 |
| 20260902143632 | 91 | 240 | 1.0 | 7.0 | 0.00 | 0.00 | 0.00 | 42 | 1016.7 |
| 20260902143046 | 91 | 247 | 3.0 | 7.0 | 0.00 | 0.00 | 0.00 | 42 | 1016.8 |
| 20260902142607 | 91 | 232 | 1.0 | 7.0 | 0.00 | 0.00 | 0.00 | 43 | 1016.8 |
| 20260902142128 | 91 | 252 | 2.0 | 7.0 | 0.00 | 0.00 | 0.00 | 43 | 1016.9 |
| 20260902141601 | 90 | 22 | 0.0 | 3.0 | 0.00 | 0.00 | 0.00 | 43 | 1016.9 |
| 20260902141054 | 91 | 335 | 1.0 | 7.0 | 0.00 | 0.00 | 0.00 | 42 | 1017.0 |
| 20260902140555 | 91 | 247 | 4.0 | 7.0 | 0.00 | 0.00 | 0.00 | 41 | 1017.0 |
| 20260902140050 | 91 | 243 | 4.0 | 7.0 | 0.00 | 0.00 | 0.00 | 42 | 1017.0 |
| 20260902135550 | 91 | 190 | 1.0 | 4.0 | 0.00 | 0.00 | 0.00 | 42 | 1017.1 |
| 20260902135049 | 91 | 200 | 2.0 | 4.0 | 0.00 | 0.00 | 0.00 | 42 | 1017.1 |
| 20260902134602 | 90 | 203 | 1.0 | 7.0 | 0.00 | 0.00 | 0.00 | 42 | 1017.2 |
| 20260902134103 | 91 | 190 | 4.0 | 7.0 | 0.00 | 0.00 | 0.00 | 41 | 1017.2 |
| 20260902133557 | 91 | 191 | 3.0 | 5.0 | 0.00 | 0.00 | 0.00 | 41 | 1017.2 |
| 20260902133058 | 92 | 105 | 1.0 | 3.0 | 0.00 | 0.00 | 0.00 | 40 | 1017.1 |
| 20260902132552 | 92 | 179 | 0.0 | 5.0 | 0.00 | 0.00 | 0.00 | 41 | 1017.2 |
| 20260902132051 | 91 | 190 | 1.0 | 5.0 | 0.00 | 0.00 | 0.00 | 41 | 1017.2 |
| 20260902131551 | 92 | 134 | 2.0 | 6.0 | 0.00 | 0.00 | 0.00 | 41 | 1017.2 |
| 20260902131104 | 92 | 154 | 1.0 | 6.0 | 0.00 | 0.00 | 0.00 | 40 | 1017.3 |
| 20260902130621 | 92 | 89 | 1.0 | 4.0 | 0.00 | 0.00 | 0.00 | 40 | 1017.4 |
| 20260902125554 | 91 | 194 | 0.0 | 3.0 | 0.00 | 0.00 | 0.00 | 41 | 1017.5 |
| 20260902125055 | 91 | 196 | 1.0 | 5.0 | 0.00 | 0.00 | 0.00 | 41 | 1017.5 |
| 20260902124633 | 91 | 174 | 2.0 | 8.0 | 0.00 | 0.00 | 0.00 | 41 | 1017.6 |
| 20260902124133 | 91 | 233 | 4.0 | 8.0 | 0.00 | 0.00 | 0.00 | 41 | 1017.6 |
| 20260902123605 | 91 | 180 | 2.0 | 7.0 | 0.00 | 0.00 | 0.00 | 42 | 1017.6 |
| 20260902123106 | 91 | 211 | 5.0 | 7.0 | 0.00 | 0.00 | 0.00 | 41 | 1017.7 |
| 20260902122627 | 91 | 260 | 3.0 | 7.0 | 0.00 | 0.00 | 0.00 | 41 | 1017.7 |
| 20260902122059 | 91 | 160 | 2.0 | 6.0 | 0.00 | 0.00 | 0.00 | 40 | 1017.7 |
| 20260902121553 | 91 | 217 | 3.0 | 8.0 | 0.00 | 0.00 | 0.00 | 40 | 1017.9 |
| 20260902121054 | 91 | 169 | 2.0 | 8.0 | 0.00 | 0.00 | 0.00 | 41 | 1017.9 |
| 20260902120548 | 91 | 242 | 3.0 | 7.0 | 0.00 | 0.00 | 0.00 | 42 | 1017.8 |
| 20260902120049 | 91 | 238 | 0.0 | 6.0 | 0.00 | 0.00 | 0.00 | 41 | 1017.9 |
| 20260902115609 | 91 | 228 | 3.0 | 6.0 | 0.00 | 0.00 | 0.00 | 42 | 1018.0 |
| 20260902115103 | 91 | 257 | 2.0 | 6.0 | 0.00 | 0.00 | 0.00 | 41 | 1018.0 |
| 20260902114624 | 91 | 207 | 2.0 | 6.0 | 0.00 | 0.00 | 0.00 | 42 | 1018.0 |
| 20260902114057 | 91 | 232 | 1.0 | 6.0 | 0.00 | 0.00 | 0.00 | 41 | 1018.1 |
| 20260902113558 | 91 | 238 | 1.0 | 5.0 | 0.00 | 0.00 | 0.00 | 42 | 1018.1 |
| 20260902113052 | 91 | 242 | 1.0 | 5.0 | 0.00 | 0.00 | 0.00 | 42 | 1018.2 |
| 20260902112552 | 91 | 165 | 3.0 | 5.0 | 0.00 | 0.00 | 0.00 | 42 | 1018.3 |
| 20260902112105 | 90 | 177 | 2.0 | 5.0 | 0.00 | 0.00 | 0.00 | 42 | 1018.3 |
| 20260902111605 | 90 | 302 | 2.0 | 5.0 | 0.00 | 0.00 | 0.00 | 44 | 1018.3 |
| 20260902111058 | 90 | 151 | 1.0 | 3.0 | 0.00 | 0.00 | 0.00 | 43 | 1018.4 |
| 20260902110559 | 89 | 197 | 2.0 | 4.0 | 0.00 | 0.00 | 0.00 | 44 | 1018.5 |
| 20260902110053 | 89 | 198 | 2.0 | 4.0 | 0.00 | 0.00 | 0.00 | 45 | 1018.5 |
| 20260902105553 | 88 | 245 | 2.0 | 3.0 | 0.00 | 0.00 | 0.00 | 45 | 1018.6 |
| 20260902105046 | 88 | 142 | 2.0 | 3.0 | 0.00 | 0.00 | 0.00 | 45 | 1018.7 |
| 20260902104606 | 88 | 85 | 1.0 | 3.0 | 0.00 | 0.00 | 0.00 | 46 | 1018.7 |
| 20260902104100 | 88 | 33 | 1.0 | 3.0 | 0.00 | 0.00 | 0.00 | 46 | 1018.8 |
| 20260902103600 | 87 | 35 | 1.0 | 4.0 | 0.00 | 0.00 | 0.00 | 46 | 1018.9 |
| 20260902103113 | 87 | 323 | 3.0 | 4.0 | 0.00 | 0.00 | 0.00 | 46 | 1018.9 |
| 20260902102613 | 87 | 52 | 0.0 | 2.0 | 0.00 | 0.00 | 0.00 | 46 | 1019.0 |
| 20260902102053 | 86 | 54 | 1.0 | 3.0 | 0.00 | 0.00 | 0.00 | 46 | 1019.0 |
| 20260902101546 | 86 | 152 | 1.0 | 4.0 | 0.00 | 0.00 | 0.00 | 47 | 1019.0 |
| 20260902101046 | 86 | 288 | 1.0 | 6.0 | 0.00 | 0.00 | 0.00 | 47 | 1019.1 |
| 20260902100623 | 86 | 59 | 2.0 | 6.0 | 0.00 | 0.00 | 0.00 | 47 | 1019.1 |
| 20260902100056 | 86 | 73 | 2.0 | 4.0 | 0.00 | 0.00 | 0.00 | 47 | 1019.1 |
| 20260902095557 | 86 | 25 | 2.0 | 4.0 | 0.00 | 0.00 | 0.00 | 48 | 1019.1 |
| 20260902095050 | 86 | 30 | 2.0 | 4.0 | 0.00 | 0.00 | 0.00 | 47 | 1019.2 |
| 20260902094551 | 86 | 132 | 2.0 | 5.0 | 0.00 | 0.00 | 0.00 | 47 | 1019.2 |
| 20260902094111 | 86 | 74 | 3.0 | 5.0 | 0.00 | 0.00 | 0.00 | 48 | 1019.2 |
| 20260902093604 | 85 | 47 | 1.0 | 5.0 | 0.00 | 0.00 | 0.00 | 48 | 1019.2 |
| 20260902093105 | 85 | 63 | 3.0 | 5.0 | 0.00 | 0.00 | 0.00 | 49 | 1019.3 |
| 20260902092558 | 85 | 45 | 2.0 | 5.0 | 0.00 | 0.00 | 0.00 | 49 | 1019.3 |
| 20260902092059 | 85 | 44 | 3.0 | 5.0 | 0.00 | 0.00 | 0.00 | 49 | 1019.3 |
| 20260902091553 | 85 | 63 | 0.0 | 3.0 | 0.00 | 0.00 | 0.00 | 50 | 1019.3 |
| 20260902091051 | 84 | 63 | 1.0 | 4.0 | 0.00 | 0.00 | 0.00 | 51 | 1019.4 |
| 20260902090605 | 84 | 13 | 2.0 | 6.0 | 0.00 | 0.00 | 0.00 | 51 | 1019.4 |
| 20260902090106 | 83 | 82 | 2.0 | 7.0 | 0.00 | 0.00 | 0.00 | 51 | 1019.4 |
| 20260902085559 | 83 | 88 | 2.0 | 7.0 | 0.00 | 0.00 | 0.00 | 51 | 1019.4 |
| 20260902085100 | 83 | 65 | 2.0 | 6.0 | 0.00 | 0.00 | 0.00 | 52 | 1019.4 |
| 20260902084554 | 83 | 37 | 3.0 | 6.0 | 0.00 | 0.00 | 0.00 | 51 | 1019.3 |
| 20260902084055 | 83 | 71 | 2.0 | 6.0 | 0.00 | 0.00 | 0.00 | 52 | 1019.3 |
| 20260902083609 | 82 | 56 | 2.0 | 7.0 | 0.00 | 0.00 | 0.00 | 53 | 1019.3 |
| 20260902083049 | 82 | 59 | 3.0 | 6.0 | 0.00 | 0.00 | 0.00 | 52 | 1019.2 |
| 20260902082610 | 82 | 61 | 2.0 | 6.0 | 0.00 | 0.00 | 0.00 | 52 | 1019.3 |
| 20260902082104 | 82 | 9 | 2.0 | 6.0 | 0.00 | 0.00 | 0.00 | 53 | 1019.2 |
| 20260902081557 | 82 | 360 | 2.0 | 5.0 | 0.00 | 0.00 | 0.00 | 55 | 1019.2 |
| 20260902081058 | 82 | 355 | 3.0 | 5.0 | 0.00 | 0.00 | 0.00 | 54 | 1019.2 |
| 20260902080549 | 81 | 49 | 0.0 | 3.0 | 0.00 | 0.00 | 0.00 | 56 | 1019.2 |
| 20260902080049 | 81 | 51 | 1.0 | 4.0 | 0.00 | 0.00 | 0.00 | 58 | 1019.1 |
| 20260902075549 | 81 | 314 | 2.0 | 4.0 | 0.00 | 0.00 | 0.00 | 60 | 1019.1 |
| 20260902075103 | 80 | 325 | 1.0 | 2.0 | 0.00 | 0.00 | 0.00 | 64 | 1019.2 |
| 20260902074623 | 79 | 325 | 0.0 | 3.0 | 0.00 | 0.00 | 0.00 | 64 | 1019.1 |
| 20260902074103 | 79 | 325 | 2.0 | 3.0 | 0.00 | 0.00 | 0.00 | 65 | 1019.1 |
| 20260902073557 | 79 | 324 | 1.0 | 3.0 | 0.00 | 0.00 | 0.00 | 66 | 1019.2 |
| 20260902073059 | 78 | 325 | 0.0 | 3.0 | 0.00 | 0.00 | 0.00 | 68 | 1019.1 |
| 20260902072552 | 78 | 325 | 1.0 | 3.0 | 0.00 | 0.00 | 0.00 | 68 | 1019.0 |
| 20260902072045 | 77 | 331 | 2.0 | 4.0 | 0.00 | 0.00 | 0.00 | 68 | 1019.0 |
| 20260902071546 | 77 | 335 | 1.0 | 4.0 | 0.00 | 0.00 | 0.00 | 69 | 1019.0 |
| 20260902071107 | 76 | 331 | 1.0 | 3.0 | 0.00 | 0.00 | 0.00 | 70 | 1019.0 |
| 20260902070601 | 75 | 333 | 1.0 | 4.0 | 0.00 | 0.00 | 0.00 | 71 | 1018.9 |
| 20260902070054 | 75 | 324 | 1.0 | 4.0 | 0.00 | 0.00 | 0.00 | 73 | 1018.8 |
| 20260902065554 | 74 | 317 | 2.0 | 4.0 | 0.00 | 0.00 | 0.00 | 73 | 1018.8 |
| 20260902065048 | 74 | 312 | 3.0 | 5.0 | 0.00 | 0.00 | 0.00 | 73 | 1018.9 |
| 20260902064548 | 74 | 309 | 3.0 | 5.0 | 0.00 | 0.00 | 0.00 | 73 | 1019.0 |
| 20260902064110 | 73 | 308 | 2.0 | 6.0 | 0.00 | 0.00 | 0.00 | 75 | 1019.0 |
| 20260902063545 | 73 | 306 | 2.0 | 5.0 | 0.00 | 0.00 | 0.00 | 76 | 1019.0 |
| 20260902063107 | 72 | 325 | 2.0 | 5.0 | 0.00 | 0.00 | 0.00 | 76 | 1019.0 |
| 20260902062600 | 72 | 317 | 2.0 | 5.0 | 0.00 | 0.00 | 0.00 | 77 | 1018.9 |
| 20260902062054 | 72 | 309 | 3.0 | 5.0 | 0.00 | 0.00 | 0.00 | 77 | 1018.9 |
| 20260902061552 | 71 | 305 | 3.0 | 5.0 | 0.00 | 0.00 | 0.00 | 77 | 1018.9 |
| 20260902061045 | 71 | 306 | 2.0 | 4.0 | 0.00 | 0.00 | 0.00 | 78 | 1018.9 |
| 20260902060546 | 71 | 311 | 3.0 | 5.0 | 0.00 | 0.00 | 0.00 | 78 | 1018.8 |
| 20260902060106 | 71 | 315 | 3.0 | 5.0 | 0.00 | 0.00 | 0.00 | 78 | 1018.8 |
| 20260902055559 | 71 | 314 | 2.0 | 4.0 | 0.00 | 0.00 | 0.00 | 78 | 1018.8 |
| 20260902055116 | 70 | 319 | 3.0 | 4.0 | 0.00 | 0.00 | 0.00 | 77 | 1018.7 |
| 20260902054550 | 70 | 310 | 0.0 | 0.0 | 0.00 | 0.00 | 0.00 | 78 | 1018.6 |
| 20260902054052 | 70 | 310 | 0.0 | 1.0 | 0.00 | 0.00 | 0.00 | 78 | 1018.6 |
| 20260902053545 | 69 | 310 | 0.0 | 2.0 | 0.00 | 0.00 | 0.00 | 79 | 1018.6 |
| 20260902053106 | 69 | 310 | 1.0 | 2.0 | 0.00 | 0.00 | 0.00 | 79 | 1018.6 |
| 20260902052600 | 69 | 309 | 0.0 | 0.0 | 0.00 | 0.00 | 0.00 | 79 | 1018.6 |
| 20260902052121 | 69 | 309 | 0.0 | 0.0 | 0.00 | 0.00 | 0.00 | 80 | 1018.5 |
| 20260902051600 | 69 | 309 | 0.0 | 0.0 | 0.00 | 0.00 | 0.00 | 80 | 1018.4 |
| 20260902051054 | 69 | 309 | 0.0 | 0.0 | 0.00 | 0.00 | 0.00 | 81 | 1018.4 |
| 20260902050554 | 69 | 309 | 0.0 | 0.0 | 0.00 | 0.00 | 0.00 | 81 | 1018.4 |
| 20260902050055 | 68 | 309 | 0.0 | 0.0 | 0.00 | 0.00 | 0.00 | 81 | 1018.5 |
| 20260902045549 | 68 | 309 | 0.0 | 0.0 | 0.00 | 0.00 | 0.00 | 81 | 1018.5 |
| 20260902045110 | 68 | 309 | 0.0 | 0.0 | 0.00 | 0.00 | 0.00 | 81 | 1018.5 |
| 20260902044610 | 68 | 309 | 0.0 | 0.0 | 0.00 | 0.00 | 0.00 | 81 | 1018.4 |
| 20260902044103 | 68 | 309 | 0.0 | 0.0 | 0.00 | 0.00 | 0.00 | 81 | 1018.4 |
| 20260902043557 | 68 | 309 | 0.0 | 0.0 | 0.00 | 0.00 | 0.00 | 81 | 1018.4 |
| 20260902043058 | 68 | 309 | 0.0 | 0.0 | 0.00 | 0.00 | 0.00 | 80 | 1018.3 |
| 20260902042551 | 68 | 309 | 0.0 | 0.0 | 0.00 | 0.00 | 0.00 | 80 | 1018.4 |
| 20260902042052 | 68 | 309 | 0.0 | 0.0 | 0.00 | 0.00 | 0.00 | 80 | 1018.4 |
| 20260902041546 | 68 | 309 | 0.0 | 0.0 | 0.00 | 0.00 | 0.00 | 80 | 1018.4 |
| 20260902041047 | 68 | 309 | 0.0 | 0.0 | 0.00 | 0.00 | 0.00 | 80 | 1018.4 |
| 20260902040601 | 68 | 309 | 0.0 | 0.0 | 0.00 | 0.00 | 0.00 | 80 | 1018.3 |
| 20260902035553 | 69 | 309 | 0.0 | 1.0 | 0.00 | 0.00 | 0.00 | 80 | 1018.4 |
| 20260902035053 | 69 | 309 | 0.0 | 0.0 | 0.00 | 0.00 | 0.00 | 79 | 1018.3 |
| 20260902034554 | 69 | 309 | 0.0 | 1.0 | 0.00 | 0.00 | 0.00 | 79 | 1018.3 |
| 20260902034047 | 69 | 309 | 0.0 | 2.0 | 0.00 | 0.00 | 0.00 | 79 | 1018.3 |
| 20260902033607 | 69 | 309 | 0.0 | 3.0 | 0.00 | 0.00 | 0.00 | 79 | 1018.3 |
| 20260902033101 | 69 | 309 | 2.0 | 3.0 | 0.00 | 0.00 | 0.00 | 79 | 1018.3 |
| 20260902032601 | 69 | 311 | 2.0 | 3.0 | 0.00 | 0.00 | 0.00 | 79 | 1018.3 |
| 20260902032054 | 69 | 311 | 0.0 | 2.0 | 0.00 | 0.00 | 0.00 | 79 | 1018.3 |
| 20260902031553 | 69 | 311 | 0.0 | 3.0 | 0.00 | 0.00 | 0.00 | 79 | 1018.3 |
| 20260902031047 | 69 | 311 | 1.0 | 4.0 | 0.00 | 0.00 | 0.00 | 79 | 1018.3 |
| 20260902030548 | 69 | 311 | 2.0 | 4.0 | 0.00 | 0.00 | 0.00 | 79 | 1018.3 |
| 20260902030109 | 69 | 310 | 0.0 | 3.0 | 0.00 | 0.00 | 0.00 | 80 | 1018.3 |
| 20260902025602 | 69 | 310 | 0.0 | 2.0 | 0.00 | 0.00 | 0.00 | 80 | 1018.3 |
| 20260902025056 | 69 | 310 | 1.0 | 3.0 | 0.00 | 0.00 | 0.00 | 79 | 1018.3 |
| 20260902024557 | 69 | 310 | 2.0 | 3.0 | 0.00 | 0.00 | 0.00 | 79 | 1018.3 |
| 20260902024050 | 69 | 310 | 2.0 | 3.0 | 0.00 | 0.00 | 0.00 | 79 | 1018.3 |
| 20260902023611 | 69 | 310 | 0.0 | 0.0 | 0.00 | 0.00 | 0.00 | 79 | 1018.3 |
| 20260902023051 | 69 | 310 | 0.0 | 0.0 | 0.00 | 0.00 | 0.00 | 79 | 1018.3 |
| 20260902022628 | 69 | 310 | 0.0 | 1.0 | 0.00 | 0.00 | 0.00 | 79 | 1018.3 |
| 20260902022102 | 69 | 310 | 0.0 | 1.0 | 0.00 | 0.00 | 0.00 | 79 | 1018.3 |
| 20260902021602 | 69 | 310 | 0.0 | 2.0 | 0.00 | 0.00 | 0.00 | 79 | 1018.3 |
| 20260902021055 | 69 | 310 | 1.0 | 3.0 | 0.00 | 0.00 | 0.00 | 79 | 1018.3 |
| 20260902020555 | 69 | 310 | 1.0 | 2.0 | 0.00 | 0.00 | 0.00 | 79 | 1018.3 |
| 20260902020046 | 69 | 309 | 0.0 | 2.0 | 0.00 | 0.00 | 0.00 | 80 | 1018.4 |
| 20260902015604 | 69 | 309 | 0.0 | 3.0 | 0.00 | 0.00 | 0.00 | 80 | 1018.4 |
| 20260902015105 | 69 | 309 | 0.0 | 3.0 | 0.00 | 0.00 | 0.00 | 80 | 1018.3 |
| 20260902014558 | 69 | 309 | 0.0 | 3.0 | 0.00 | 0.00 | 0.00 | 80 | 1018.3 |
| 20260902014119 | 69 | 309 | 0.0 | 4.0 | 0.00 | 0.00 | 0.00 | 80 | 1018.4 |
| 20260902013557 | 69 | 309 | 1.0 | 4.0 | 0.00 | 0.00 | 0.00 | 80 | 1018.4 |
| 20260902013058 | 69 | 309 | 2.0 | 4.0 | 0.00 | 0.00 | 0.00 | 80 | 1018.3 |
| 20260902012552 | 70 | 313 | 2.0 | 3.0 | 0.00 | 0.00 | 0.00 | 80 | 1018.3 |
| 20260902012052 | 70 | 319 | 1.0 | 2.0 | 0.00 | 0.00 | 0.00 | 79 | 1018.2 |
| 20260902011546 | 70 | 319 | 1.0 | 2.0 | 0.00 | 0.00 | 0.00 | 79 | 1018.3 |
| 20260902011107 | 70 | 318 | 1.0 | 3.0 | 0.00 | 0.00 | 0.00 | 79 | 1018.2 |
| 20260902010546 | 70 | 318 | 1.0 | 3.0 | 0.00 | 0.00 | 0.00 | 79 | 1018.3 |
| 20260902010059 | 70 | 316 | 0.0 | 2.0 | 0.00 | 0.00 | 0.00 | 79 | 1018.4 |
| 20260902005600 | 70 | 316 | 0.0 | 2.0 | 0.00 | 0.00 | 0.00 | 79 | 1018.5 |
| 20260902005121 | 70 | 315 | 0.0 | 0.0 | 0.00 | 0.00 | 0.00 | 79 | 1018.5 |
| 20260902004552 | 70 | 315 | 0.0 | 0.0 | 0.00 | 0.00 | 0.00 | 79 | 1018.5 |
| 20260902004053 | 70 | 315 | 0.0 | 0.0 | 0.00 | 0.00 | 0.00 | 79 | 1018.5 |
| 20260902003546 | 70 | 315 | 0.0 | 1.0 | 0.00 | 0.00 | 0.00 | 79 | 1018.6 |
| 20260902003048 | 70 | 315 | 0.0 | 1.0 | 0.00 | 0.00 | 0.00 | 79 | 1018.5 |
| 20260902002557 | 70 | 315 | 0.0 | 2.0 | 0.00 | 0.00 | 0.00 | 79 | 1018.4 |
| 20260902002058 | 70 | 315 | 1.0 | 2.0 | 0.00 | 0.00 | 0.00 | 79 | 1018.4 |
| 20260902001551 | 70 | 315 | 0.0 | 3.0 | 0.00 | 0.00 | 0.00 | 79 | 1018.4 |
| 20260902001051 | 70 | 315 | 2.0 | 3.0 | 0.00 | 0.00 | 0.00 | 78 | 1018.4 |
| 20260902000545 | 70 | 315 | 2.0 | 3.0 | 0.00 | 0.00 | 0.00 | 78 | 1018.4 |
| 20260902000057 | 70 | 315 | 1.0 | 3.0 | 0.00 | 0.00 | 0.00 | 78 | 1018.4 |
| 20260901235618 | 70 | 315 | 1.0 | 3.0 | 0.00 | 0.00 | 0.00 | 78 | 1018.4 |
| 20260901235114 | 70 | 315 | 2.0 | 3.0 | 0.00 | 0.00 | 0.00 | 78 | 1018.4 |
| 20260901234607 | 71 | 315 | 1.0 | 2.0 | 0.00 | 0.00 | 0.00 | 78 | 1018.4 |
| 20260901234106 | 71 | 315 | 0.0 | 2.0 | 0.00 | 0.00 | 0.00 | 78 | 1018.4 |
| 20260901233625 | 71 | 315 | 1.0 | 2.0 | 0.00 | 0.00 | 0.00 | 77 | 1018.4 |
| 20260901233045 | 71 | 315 | 1.0 | 2.0 | 0.00 | 0.00 | 0.00 | 77 | 1018.4 |
| 20260901232605 | 71 | 315 | 1.0 | 3.0 | 0.00 | 0.00 | 0.00 | 77 | 1018.4 |
| 20260901232058 | 71 | 315 | 1.0 | 3.0 | 0.00 | 0.00 | 0.00 | 77 | 1018.3 |
| 20260901231559 | 71 | 315 | 1.0 | 3.0 | 0.00 | 0.00 | 0.00 | 77 | 1018.4 |
| 20260901231054 | 71 | 314 | 1.0 | 3.0 | 0.00 | 0.00 | 0.00 | 76 | 1018.4 |